Location: Caltech
(34.1382°N, 118.1253°W)
Time: 20:07:49
(UTC-07:00)

RS-15 - Visible Passes

Search period start: 23 June 2018 00:00
Search period end: 03 July 2018 00:00
Orbit: 1890 x 2154 km, 64.8° (Epoch: 23 June)

Date Brightness Start Highest point End Pass type
(mag) Time Alt. Az. Time Alt. Az. Time Alt. Az.
24 Jun 9.3 04:56:13 10° S 05:07:17 42° ESE 05:18:05 10° NE visible
25 Jun 9.6 04:21:39 10° SSE 04:31:38 30° ESE 04:41:22 10° NE visible
26 Jun 9.9 03:47:47 10° SE 03:56:02 21° E 04:04:08 10° ENE visible
27 Jun 10.0 03:15:18 10° SE 03:20:34 14° E 03:25:46 10° ENE visible
28 Jun 8.7 04:43:19 10° S 04:55:10 58° ESE 05:06:43 10° NE visible
29 Jun 9.0 04:08:11 10° S 04:19:23 43° ESE 04:30:18 10° NE visible
30 Jun 9.4 03:33:32 10° SSE 03:43:42 32° ESE 03:53:37 10° NE visible
01 Jul 9.7 02:59:33 10° SSE 03:08:07 23° E 03:16:29 10° NE visible
01 Jul 8.3 05:06:52 10° SSW 05:19:12 84° WNW 05:31:11 10° NNE visible
02 Jul 9.9 02:26:45 10° SE 02:32:37 15° E 02:38:23 10° ENE visible
02 Jul 8.3 04:30:56 10° SSW 04:43:11 77° ESE 04:55:05 10° NNE visible
